Regional Weather Roundup
Issued by NWS

Home | Current Version | Previous Version | Text Only | Print | Product List | Glossary Off
Versions: 1 2 3 4 5 6 7 8 9 10 11 12 13 14 15 16 17 18 19 20 21 22 23 24 25 26 27 28

000
ASUS45 KGTF 210610
RWRMT
MONTANA HOURLY WEATHER ROUNDUP
NATIONAL WEATHER SERVICE GREAT FALLS MT
1200 AM MDT TUE APR 21 2015

NOTE: "FAIR" INDICATES FEW OR NO CLOUDS BELOW 12000 FEET WITH NO
SIGNIFICANT WEATHER AND/OR OBSTRUCTIONS TO VISIBILITY.

MTZ001>007-043-210700-
WEST OF THE DIVIDE

CITY           SKY/WX    TMP DP  RH WIND       PRES   REMARKS
KALISPELL      PTCLDY    43  36  76 CALM      29.82S
MISSOULA       CLEAR     45  31  58 CALM      29.85S
BUTTE          CLEAR     37  25  61 SE3       29.92S
DEER LODGE       N/A     39  27  60 W3        29.93R
EUREKA           N/A     46  34  61 CALM      29.82S
HAMILTON         N/A     48  30  49 SE3       29.86R
LIBBY            N/A     46  32  57 S3        29.84S
$$

MTZ008-052>055-210700-
SOUTHWEST MONTANA

CITY           SKY/WX    TMP DP  RH WIND       PRES   REMARKS
BOZEMAN        PTCLDY    35  29  78 SE3       29.88R
DILLON         PTCLDY    46  27  47 S8        29.89R
$$

MTZ009-010-012-014-046-048-049-054-210700-
EAST SLOPES AND CENTRAL MONTANA

CITY           SKY/WX    TMP DP  RH WIND       PRES   REMARKS
CUT BANK       MOCLDY    45  25  45 W8        29.85S
GREAT FALLS    CLEAR     44  27  51 SE5       29.84S
MALMSTROM AFB  PTCLDY    45  31  57 E1        29.85S
HELENA         CLEAR     46  26  45 N3        29.85S
$$

MTZ011-013-016-021-045-047-050-051-210700-
NORTH CENTRAL MONTANA

CITY           SKY/WX    TMP DP  RH WIND       PRES   REMARKS
HAVRE          PTCLDY    42  27  55 CALM      29.81S
LEWISTOWN      PTCLDY    37  26  64 SE5       29.86R
CHINOOK          N/A     37  27  65 CALM      29.82R
FORT BENTON      N/A     48  30  49 CALM      29.84S
$$

MTZ017>020-022>042-056>058-061-062-210700-
EASTERN PLAINS

CITY           SKY/WX    TMP DP  RH WIND       PRES   REMARKS
BAKER          PTCLDY    31  19  61 CALM      29.81F
BILLINGS       MOCLDY    50  22  33 S7        29.85F
GLASGOW        PTCLDY    37  21  52 SE9       29.76S WCI  30
JORDAN           N/A     42  21  43 CALM      29.78F
LIVINGSTON     PTCLDY    37  26  64 NW8       29.88S WCI  31
MILES CITY     PTCLDY    36  17  46 SE8       29.82F WCI  30
SIDNEY         MOCLDY    37  21  52 CALM      29.80R
WOLF POINT     CLOUDY    40  25  55 CALM      29.78S
FORSYTH          N/A     43  19  39 S7        29.81F
PLENTYWOOD       N/A     37  23  56 NE14      29.82S WCI  29
POPLAR           N/A     45  19  36 E5        29.79F
$$

REGIONAL REPORTS...DAKOTAS

CITY           SKY/WX    TMP DP  RH WIND       PRES   REMARKS
WILLISTON      CLOUDY    36  18  48 NE8       29.83R WCI  30
MINOT          CLOUDY    36  21  54 N9        29.81R WCI  29
DICKINSON      CLEAR     32  15  49 W6        29.77F WCI  26
BEACH          MOCLDY    32  16  51 SW5       29.79F
CROSBY         CLOUDY    34  28  80 NE6       29.86R WCI  29
WATFORD CITY   FAIR      28  18  64 CALM      29.80R
BISMARCK       MOCLDY    36  15  42 W7        29.78S WCI  30
GRAND FORKS    CLOUDY    34  27  75 NW18G30   29.63S WCI  23
FARGO          CLOUDY    34  28  79 NW22G29   29.64S WCI  22
BUFFALO SD       N/A     28  19  69 W5        29.76F
RAPID CITY     CLEAR     33  21  61 NW7       29.89  WCI  27
$$

REGIONAL REPORTS...WYOMING/IDAHO/WASHINGTON

CITY           SKY/WX    TMP DP  RH WIND       PRES   REMARKS
GILLETTE       CLEAR     25  19  78 S6        29.89S WCI  18
SHERIDAN       CLOUDY    35  27  72 SW7       29.88S WCI  29
BUFFALO WY     CLEAR     40  21  46 W5        29.90S
CODY           CLEAR     45  28  53 SW5       29.89S
YELLOWSTONE LA   N/A     27  20  75 CALM      29.99S
IDAHO FALLS    PTCLDY    49  29  46 SW8       29.87S
SALMON         CLEAR     46  25  42 CALM      29.85S
BOISE          CLEAR     52  30  43 CALM      29.81F
SPOKANE        PTCLDY    54  36  50 SW8       29.82S
$$

REGIONAL REPORTS...ALBERTA

CITY           SKY/WX    TMP DP  RH WIND       PRES   REMARKS
EDMONTON       PTCLDY    45  25  45 E9        29.84R
CALGARY        MOCLDY    52  32  46 CALM      29.86S
LETHBRIDGE     CLOUDY    50  32  50 N2        29.84R
MEDICINE HAT   CLEAR     43  30  61 CALM      29.82R
$$

REGIONAL REPORTS...SASKATCHEWAN

CITY           SKY/WX    TMP DP  RH WIND       PRES   REMARKS
SWIFT CURRENT  CLEAR     34  27  75 E14       29.80R WCI  24
REGINA         CLOUDY    36  30  80 E7        29.86R WCI  30
SASKATOON      PTCLDY    30  27  86 NE7       29.93R WCI  23
$$



USA.gov is the U.S. government's official web portal to all federal, state and local government web resources and services.